Meling Ranch Airstrip

Jump to: basic info | weather | comments

Related pages: nearby airports | nearby navaids

Basic information (top)

Codes: MSJG
Location: lon 30.975328, lat -115.737877
Status: small_airport

Weather (top)

Current conditions for General Rodolfo Sánchez Taboada International Airport 103nm (190km) NNE (rec'd 2014/04/24 20:40Z):

MMML 242040Z 13006KT 10SM FEW200 31/M04 A2987 RMK SLP127 57012 911 8/004

Airport forecast for General Rodolfo Sánchez Taboada International Airport 103nm (190km) NNE (rec'd 2014/04/24 18:16Z):

TAF MMML 241711Z 2418/2518 30010KT P6SM SKC 
     FM250300 00000KT P6SM SKC

Latest comments (top)

No comments yet for Meling Ranch Airstrip

More... (top)

See also NOTAMs and nearby airports and navaids, or visit the Meling Ranch Airstrip page at the main OurAirports website..